Miscellaneous Local Product
Issued by NWS Hastings, NE

Home | Current Version | Previous Version | Text Only | Print | Product List | Glossary On
Versions: 1 2 3 4 5 6 7 8 9 10 11 12 13 14 15 16 17 18 19 20 21 22 23 24 25 26 27 28 29 30 31 32 33 34 35 36 37 38 39 40 41 42 43 44 45 46 47 48 49 50
000
AXUS43 KGID 211902
MISGRI

GID CWA HOURLY WEATHER ROUNDUP
NATIONAL WEATHER SERVICE HASTINGS NE
200 PM CDT SUN SEP 21 2014

NOTE: "FAIR" INDICATES FEW OR NO CLOUDS BELOW 12,000 FEET WITH NO
SIGNIFICANT WEATHER AND/OR OBSTRUCTIONS TO VISIBILITY.

...SOUTH CENTRAL NEBRASKA...

CITY           SKY/WX    TMP DP  RH WIND       PRES   REMARKS
GRAND ISLAND   SUNNY     74  42  31 N16       30.28F
HASTINGS       SUNNY     73  40  30 N14       30.28F
KEARNEY        SUNNY     73  39  29 NW13G20   30.30F
ORD            SUNNY     72  43  35 NW6G16    30.28F
YORK           SUNNY     70  46  43 N13G18    30.26F
AURORA         SUNNY     72  39  30 N14G20    30.27F
LEXINGTON      SUNNY     73  40  31 N9        30.31F
HOLDREGE       SUNNY     72  40  31 N7G17     30.30F
HEBRON         SUNNY     75  37  25 N7G22     30.25F

...NEBRASKA PANHANDLE...

CITY           SKY/WX    TMP DP  RH WIND       PRES   REMARKS
CHADRON        SUNNY     74  38  27 VRB5      30.32F
ALLIANCE       PTSUNNY   71  36  27 VRB3      30.35F
SCOTTSBLUFF    SUNNY     71  39  31 SE13G18   30.35F
SIDNEY         SUNNY     73  37  27 SE10      30.37F

...WESTERN AND NORTH CENTRAL NEBRASKA...

CITY           SKY/WX    TMP DP  RH WIND       PRES   REMARKS
VALENTINE      SUNNY     72  36  26 NW13      30.32F
AINSWORTH      SUNNY     69  37  30 NW10      30.32F
ONEILL         SUNNY     70  46  41 N13G21    30.30F
BROKEN BOW     SUNNY     75  38  26 N8        30.30F
IMPERIAL       CLOUDY    72  35  25 SE7       30.34F
NORTH PLATTE   SUNNY     73  39  29 VRB3G16   30.32F
MCCOOK         SUNNY     76  37  24 N8        30.32F

...EASTERN NEBRASKA...

CITY           SKY/WX    TMP DP  RH WIND       PRES   REMARKS
NORFOLK        SUNNY     71  45  39 NW18      30.25F
SO SIOUX CITY  MOSUNNY   69  49  48 N15G21    30.23S
TEKAMAH        MOSUNNY   73  47  39 N16G26    30.22F
COLUMBUS       SUNNY     72  45  37 NW15G22   30.26F
ALBION         SUNNY     71  40  32 NW10G23   30.27F
OMAHA EPPLEY   MOSUNNY   71  46  40 N21G29    30.21F
OFFUTT AFB     MOSUNNY   72  49  45 NW15G23   30.21F
MILLARD        MOSUNNY   71  48  43 NW12G21   30.22F
LINCOLN        SUNNY     73  46  38 N17G28    30.24F
NEBRASKA CITY    N/A     71  34  25 N17G24    30.21F
BEATRICE       SUNNY     74  44  34 N17       30.23F
FALLS CITY     SUNNY     74  46  36 N16G26    30.19F

...NORTHERN KANSAS...

CITY           SKY/WX    TMP DP  RH WIND       PRES   REMARKS
GOODLAND       MOSUNNY   73  37  27 SE10      30.36F
HILL CITY      SUNNY     78  37  22 N13       30.30F
NORTON         CLEAR     75  28  17 NE8       30.30F
SMITH CENTER   SUNNY     75  37  25 N6G17     30.28F
BELOIT         SUNNY     79  37  22 N9        30.24F
HAYS           SUNNY     77  45  31 N10       30.28F
RUSSELL        SUNNY     77  43  29 N14       30.26F
CONCORDIA      SUNNY     76  42  29 N14G23    30.24F
SALINA         SUNNY     78  44  29 N13       30.24F
TOPEKA         SUNNY     78  46  32 N15G25    30.19F



USA.gov is the U.S. government's official web portal to all federal, state and local government web resources and services.